OKEAN-0
1 25860U 99039A 12081.97238848 .00000550 00000-0 90849-4 0 05790
2 25860 097.9256 046.4541 0001342 101.9261 258.2097 14.74124355681728
NOAA-16
1 26536U 00055A 12081.78213103 .00000001 00000-0 25564-4 0 06814
2 26536 099.1057 122.5140 0010123 333.4836 026.5793 14.12715670592694
NOAA-17
1 27453U 02032A 12081.70949284 .00000037 00000-0 33588-4 0 06430
2 27453 098.3458 113.1316 0012540 056.5795 303.6579 14.24405920506303
NOAA-18
1 28654U 05018A 12081.81403768 -.00000031 00000-0 81772-5 0 01209
2 28654 099.0368 039.2188 0014999 043.0189 317.2170 14.11619763352235
NOAA-19
1 33591U 09005A 12081.80226645 .00000246 00000-0 16031-3 0 03103
2 33591 098.8581 022.7048 0013251 269.2664 090.6988 14.11310772160680
HUBBLE
1 20580U 90037B 12082.17000933 .00001521 00000-0 99939-4 0 9677
2 20580 028.4714 352.8983 0003513 209.0182 151.0101 15.02295563 1632
ISS
1 25544U 98067A 12083.07342593 .00015714 00000-0 19947-3 0 2317
2 25544 051.6423 193.7400 0016398 185.6950 169.9923 15.59465667764581
CO-58
1 28895U 05043F 12081.60019920 .00000512 00000-0 11438-3 0 01296
2 28895 097.9286 311.6656 0018815 067.9596 292.3586 14.60529270340871
FALCON
1 30776U 07006E 12081.42065221 .00002980 00000-0 19832-3 0 03146
2 30776 035.4322 092.6491 0002693 317.0139 043.0368 15.06883758277000
MAST
1 31126U 07012K 12081.97054500 .00000594 00000-0 14286-3 0 04240
2 31126 097.8791 098.1657 0094608 023.0598 337.4799 14.54074151261593
CAPE1
1 31130U 07012P 12082.75906214 .00000477 00000-0 11857-3 0 4252
2 31130 097.8840 095.3462 0102353 033.4856 327.2750 14.52822047261222
COMPASS
1 32787U 08021E 12081.33699243 .00001901 00000-0 23624-3 0 02566
2 32787 097.8094 144.5993 0014869 353.0446 007.0559 14.83650445210788
AAUSAT2
1 32788U 08021F 12081.86427899 .00001594 00000-0 19783-3 0 2469
2 32788 097.8136 145.4528 0014266 352.8926 007.2052 14.83942274210886
DO-64
1 32789U 08021G 12081.72278705 .00002504 00000-0 29803-3 0 02629
2 32789 097.8209 147.0212 0014500 348.6791 011.4083 14.85185474210895
CO-66
1 32791U 08021J 12081.15896576 .00001607 00000-0 20326-3 0 02513
2 32791 097.8107 144.2331 0015573 353.1044 006.9922 14.83130797210694
RS-30
1 32953U 08025A 12082.84554339 .00000010 00000-0 00000 0 0 6314
2 32953 082.5066 348.8334 0019079 132.8867 227.3815 12.43021627173833
TACSAT-3
1 35001U 09028A 12082.89401907 .00179600 00000-0 76091-3 0 9156
2 35001 040.4455 245.1458 0011313 348.4796 011.5773 15.83899414160780
PHARMSAT
1 35002U 09028B 12081.89083550 .00057514 00000-0 48009-3 0 8343
2 35002 040.4678 259.5643 0002188 223.2570 136.8086 15.69112560160549
METEOR-M
1 35865U 09049A 12082.80506071 -.00000016 00000-0 12596-4 0 2560
2 35865 098.6651 138.7106 0001906 320.6272 039.4759 14.21857785130322
RS-38
1 35869U 09049E 12082.76836354 .00000014 00000-0 25804-4 0 2629
2 35869 098.6611 138.6839 0003946 310.4042 049.6789 14.22059674130331
JUGNU
1 37839U 11058B 12081.61538222 .00000619 00000-0 19019-3 0 01144
2 37839 019.9623 168.7496 0019132 340.3184 019.6451 14.12035842022855
SRMSAT
1 37841U 11058D 12082.47077233 .00000264 00000-0 00000 0 0 1144
2 37841 019.9713 166.7487 0012138 315.4575 044.4880 14.10123160 22932
RAX-2
1 37853U 11061D 12082.90056841 .00002807 00000-0 23309-3 0 1293
2 37853 101.7160 083.8479 0249855 236.7023 121.0021 14.79226587 21639
AUBIESAT
1 37854U 11061E 12082.87587537 .00002128 00000-0 17697-3 0 1313
2 37854 101.7183 083.9524 0251150 236.1093 121.5987 14.79548207 21620
HRBE
1 37855U 11061F 12082.88215979 .00002086 00000-0 17424-3 0 1303
2 37855 101.7214 083.9438 0251158 236.2332 121.4713 14.79438014 21625
RS-39
1 38051U 11062C 12082.74655919 .00006494 00000-0 28714-3 0 1750
2 38051 051.6428 211.3027 0011246 086.3144 049.9205 15.22851233 8796
E-STAR
1 38079U 12006C 12082.60139100 .00034898 00000-0 88226-3 0 935
2 38079 069.4913 152.6985 0772013 356.6352 002.9719 14.08258324 5366
GOLIAT
1 38085U 12006J 12082.54192043 .00031303 00000-0 81742-3 0 912
2 38085 069.4897 152.8734 0771617 356.7172 002.9021 14.07697944 5357
